Theta_e
320 320 321 321 322 322 322 323 323 324 324 324 324 325 325 324 324 325 324 324 324 325 325 324 325 325 325 326 326 325 323 318 313 311 309 314 320 329 330 335 337 333 323 314 313 311 309 310 310 311 313 313 311 311 312 313 311 311 304 301 299 300 299 302 300 302 302 300 303 303 303 303 301 303 303 303 302 303 305 305 307 307 307 309 311 307 308 309
320 320 321 321 321 322 322 322 323 323 323 324 324 324 324 324 324 324 324 324 324 324 325 325 325 325 326 325 325 325 322 317 313 311 310 324 329 330 338 338 335 330 322 313 311 310 308 308 309 310 311 308 311 310 310 310 312 306 303 301 298 302 302 304 304 305 302 302 304 304 301 302 303 303 305 302 303 304 303 305 307 306 307 309 309 309 306 308
320 320 320 321 321 322 322 322 323 323 323 323 324 324 324 323 324 324 324 324 324 324 324 325 325 325 326 326 324 323 318 317 308 306 310 336 335 337 339 336 332 328 315 313 312 311 309 309 310 310 309 307 308 307 309 309 309 308 303 299 301 305 304 302 304 303 304 305 304 303 303 300 303 302 304 301 302 304 302 303 305 306 307 308 309 309 308 307
320 320 320 320 321 321 321 322 322 323 323 323 323 324 324 323 324 324 324 324 324 324 324 325 325 325 325 325 326 323 318 312 305 307 312 333 336 339 339 335 331 323 314 312 311 310 309 310 309 309 307 305 306 310 305 309 306 307 303 300 303 305 303 304 303 304 305 302 302 302 302 300 304 303 302 302 300 302 304 306 305 305 307 308 310 310 310 307
320 320 320 320 320 321 321 322 322 323 323 323 323 323 323 324 324 324 324 324 324 324 324 325 325 325 325 325 324 316 315 303 305 310 318 331 335 338 338 336 328 316 313 309 310 310 310 309 308 307 306 303 304 306 305 308 309 305 302 305 305 302 301 305 305 304 303 300 300 301 299 302 302 300 300 302 299 301 304 307 309 309 309 308 308 309 310 307
321 320 320 320 320 320 321 321 322 322 322 323 323 323 323 323 324 324 323 323 323 324 324 324 324 325 325 324 324 315 309 295 310 314 328 336 338 339 337 331 323 312 311 311 310 309 308 307 307 304 303 303 303 301 304 306 307 300 304 305 306 306 303 306 304 301 301 301 301 301 304 303 302 302 304 302 302 305 309 309 309 309 310 310 308 308 307 308
321 320 320 319 319 320 320 321 321 322 322 322 323 323 323 323 323 324 323 323 323 324 323 324 324 324 324 321 317 310 307 307 313 318 335 338 339 338 333 326 323 313 312 309 309 308 308 306 305 304 303 302 303 302 303 304 304 302 300 304 303 306 304 307 305 298 301 301 302 304 304 302 303 300 305 301 304 307 308 309 309 310 310 308 305 306 306 308
321 320 319 319 319 319 320 321 321 321 322 323 323 323 323 323 323 323 323 323 323 323 324 323 324 323 323 316 311 305 306 305 311 322 334 337 336 330 320 315 313 315 311 310 308 307 307 304 303 304 302 300 302 301 302 301 303 301 301 304 304 302 304 305 305 303 302 302 304 303 301 302 304 304 304 302 305 306 307 308 308 308 308 307 306 305 306 307
320 320 319 319 319 319 319 320 321 321 322 322 323 322 323 323 322 323 323 323 323 322 323 324 323 323 321 313 307 302 302 319 308 315 336 332 325 315 315 312 312 311 310 309 310 310 308 305 305 305 300 301 302 300 300 300 298 303 302 304 303 302 304 304 302 301 301 302 303 300 301 303 304 303 300 303 305 307 308 308 308 308 307 306 306 306 306 306
319 319 319 320 320 319 319 320 320 321 322 322 322 322 322 323 322 322 322 322 322 323 322 323 323 323 310 310 307 299 309 308 316 328 327 322 314 313 313 317 311 311 309 307 307 309 307 307 306 307 305 302 301 300 301 299 298 300 301 300 300 301 301 302 300 302 302 301 302 299 300 301 303 300 298 305 306 307 306 306 307 305 305 305 305 306 306 306
319 319 319 320 320 319 320 320 320 321 322 322 322 322 323 323 322 322 322 322 322 321 322 321 323 317 312 308 305 302 313 318 322 323 319 317 314 313 314 313 313 311 311 306 308 310 309 309 309 306 304 301 300 299 299 300 300 299 298 300 300 301 302 301 300 300 300 299 300 300 299 301 301 298 298 303 305 304 303 304 305 305 305 305 306 305 307 306
319 319 320 321 320 319 320 320 320 321 321 322 322 322 322 322 322 321 321 321 321 322 322 323 320 314 306 306 304 307 311 316 320 318 316 316 315 312 311 312 311 315 311 307 308 312 310 310 310 304 300 303 299 298 298 300 300 299 298 296 298 300 298 301 300 301 300 298 298 300 297 295 298 296 301 304 306 304 302 302 304 304 305 306 307 306 305 306
320 320 321 320 320 319 320 320 321 321 321 322 322 322 322 322 321 321 321 321 321 321 321 322 320 316 309 303 307 310 311 320 316 312 311 313 310 309 309 311 311 309 311 310 309 312 308 309 308 303 304 302 299 297 298 300 298 298 298 296 296 297 297 301 302 297 296 298 298 299 290 296 298 301 303 305 304 302 300 301 303 304 305 306 306 305 305 306
321 321 321 320 319 319 320 320 321 321 321 322 322 322 322 322 321 320 321 320 321 321 321 321 319 312 306 303 306 306 311 315 313 314 311 311 312 311 311 310 310 308 310 307 308 307 307 306 308 305 303 300 299 302 300 298 298 296 296 295 294 293 294 300 298 295 295 298 298 299 291 295 299 302 304 305 301 300 300 301 302 303 304 304 305 306 305 305
321 321 321 320 319 320 320 320 321 321 322 322 322 322 322 320 320 320 321 321 321 320 320 319 317 309 302 305 305 308 315 310 311 312 313 309 310 309 308 309 308 308 308 309 308 305 307 308 306 301 300 302 302 298 297 296 297 297 293 292 296 292 295 299 300 297 295 296 297 297 292 294 298 301 304 303 300 298 299 300 301 302 303 303 304 304 305 305
321 321 321 320 320 320 321 321 321 321 322 322 322 322 321 319 319 320 321 320 319 320 319 315 310 306 302 300 307 317 309 307 307 308 310 311 313 308 310 308 308 307 308 305 306 306 306 307 302 300 300 300 298 296 295 295 296 296 293 292 294 295 295 295 299 300 299 297 296 296 293 296 297 301 302 302 299 299 300 301 302 302 303 303 303 304 304 305
321 321 321 320 320 321 321 321 321 321 322 322 322 321 319 319 319 319 319 318 318 318 317 308 308 307 301 307 306 303 304 307 306 310 308 309 309 309 308 307 306 305 307 305 306 307 305 303 300 300 301 298 299 297 292 292 292 294 296 292 295 292 294 292 298 301 298 297 295 295 293 295 297 300 301 302 302 301 300 300 301 302 303 303 304 304 304 304
322 321 320 320 321 321 321 321 321 322 322 322 320 317 317 319 319 318 317 316 316 314 313 313 312 306 303 306 302 304 305 306 309 306 307 306 309 308 308 304 303 306 306 304 305 302 302 300 300 298 299 298 295 296 291 288 293 294 294 293 293 293 292 292 292 296 296 296 294 295 294 294 296 299 300 301 302 301 300 300 301 302 302 303 304 304 304 304
322 321 321 321 322 321 321 321 322 323 322 321 316 315 317 314 314 315 308 309 307 306 303 303 302 299 299 303 305 303 306 307 307 308 305 307 307 306 305 306 307 303 301 300 300 300 301 301 300 297 294 296 295 295 295 296 297 295 294 293 292 290 292 292 296 299 297 294 293 294 293 295 297 298 300 301 302 300 300 301 301 302 302 303 303 304 304 305
321 322 322 322 322 321 321 322 323 322 322 318 314 312 312 312 310 305 308 309 306 307 308 308 306 304 304 307 306 306 307 306 305 305 307 306 306 306 303 304 304 303 300 298 299 299 302 296 293 294 296 298 299 298 298 299 295 293 293 292 292 292 293 296 296 298 298 293 293 294 295 295 296 297 299 300 301 301 300 300 301 301 302 303 304 304 306 305
321 321 322 321 321 321 321 322 323 322 320 315 311 311 307 303 303 303 302 305 309 308 305 306 306 306 307 306 306 306 303 302 305 306 307 309 306 305 301 302 300 298 299 298 300 298 298 294 295 298 299 300 299 299 298 296 295 294 293 293 292 293 291 295 296 298 298 292 292 294 293 294 295 297 298 300 300 299 300 300 300 301 302 303 304 305 304 304
321 321 321 321 321 321 322 322 322 320 316 314 312 306 304 303 305 306 304 302 308 308 306 306 304 303 306 304 305 304 307 303 303 304 308 308 303 302 301 300 297 298 297 297 296 295 294 292 297 299 301 297 294 294 294 294 294 294 292 293 292 292 295 296 296 297 295 292 292 295 292 293 295 297 299 299 299 300 301 301 301 302 302 304 304 303 303 303
321 321 321 321 321 321 322 322 321 316 315 314 310 305 305 307 307 308 307 302 298 305 302 303 300 301 303 304 305 306 302 300 301 304 305 306 301 301 300 298 297 297 296 297 295 295 292 295 297 300 300 296 294 293 293 293 293 292 293 291 289 294 292 290 294 292 292 292 291 293 290 293 296 298 299 300 300 301 302 302 303 303 303 303 302 302 302 302
320 320 320 320 321 321 322 321 320 318 312 309 310 308 308 309 309 307 304 300 299 304 301 303 302 302 302 302 305 305 302 302 302 302 308 305 302 302 300 299 296 295 295 296 296 296 296 297 298 298 297 295 294 294 292 292 292 295 294 293 292 293 294 293 293 294 295 296 294 293 294 296 298 296 298 298 298 299 301 302 302 303 304 304 304 305 303 302
319 319 320 320 320 320 320 320 315 313 308 308 309 310 308 309 310 310 304 300 297 299 303 300 301 303 303 309 306 301 301 300 302 300 304 305 300 299 299 298 298 295 297 297 296 296 296 299 297 295 294 294 294 292 293 294 292 294 296 294 294 295 294 294 295 293 291 291 292 293 288 291 295 297 297 301 300 300 302 302 303 301 302 303 302 302 303 304
319 319 319 319 320 320 321 316 312 310 311 311 311 310 307 307 309 308 302 295 292 301 300 297 305 298 306 299 303 301 301 298 300 301 303 305 305 301 298 297 297 295 296 295 295 296 296 296 295 295 295 293 293 294 296 296 292 291 293 297 295 294 294 294 292 291 287 287 291 293 286 285 294 294 297 299 299 299 302 303 303 302 302 302 302 302 302 302
319 319 319 320 320 321 317 313 312 310 313 311 310 308 307 308 308 307 297 294 291 301 298 299 300 299 304 298 300 301 294 296 300 302 301 304 301 305 297 297 295 294 295 296 294 292 293 292 293 294 294 294 293 291 296 295 292 290 295 293 296 294 293 292 291 290 289 292 293 290 292 287 288 294 297 298 298 299 300 302 302 302 301 301 300 301 301 301
316 316 318 320 320 320 319 315 313 313 314 310 307 306 306 306 307 304 298 286 286 303 297 298 300 306 303 298 301 297 294 294 294 297 299 301 301 300 297 296 296 296 293 295 289 296 293 293 293 292 292 292 292 295 297 296 293 293 292 292 293 293 292 291 291 290 290 287 286 289 292 287 289 294 293 296 295 297 299 300 300 300 300 300 300 301 300 300
314 315 317 318 320 320 318 316 314 314 312 307 308 307 306 306 302 300 293 284 299 297 306 296 305 301 299 300 297 294 296 295 294 296 301 301 302 299 296 297 295 295 294 296 293 295 293 295 296 297 294 292 296 292 296 297 293 293 292 293 292 293 292 291 291 290 289 287 284 288 291 287 288 297 294 293 294 297 299 299 299 298 299 300 300 299 299 299
313 314 316 319 318 318 316 315 314 313 309 308 307 307 305 304 302 293 287 281 298 291 299 300 298 295 297 296 295 296 295 295 295 297 299 299 300 300 295 295 295 294 295 293 294 296 294 293 295 294 294 297 294 290 291 297 294 293 295 294 293 292 292 290 290 289 287 284 287 290 291 291 285 294 295 294 297 297 299 299 299 300 300 300 299 298 298 298
312 312 313 315 316 316 315 313 314 308 308 306 306 307 307 304 296 290 281 291 297 296 297 297 295 297 295 295 295 294 295 293 295 296 295 297 297 297 297 294 297 294 291 292 291 295 293 293 293 295 297 293 296 292 291 290 291 294 292 291 291 290 289 289 287 288 284 284 289 291 291 292 284 291 295 297 296 295 296 297 297 299 298 299 297 297 297 297
310 311 311 313 316 317 313 312 312 309 308 307 308 308 306 293 296 285 285 300 289 295 296 294 293 295 292 294 294 295 295 294 294 295 295 295 295 294 295 294 295 290 291 290 291 292 290 291 295 295 295 295 294 293 292 292 293 292 291 290 286 285 287 284 285 281 283 285 286 286 290 286 287 293 296 298 299 300 298 298 298 298 298 298 296 296 296 295
310 310 311 311 313 315 316 313 311 309 309 309 311 310 298 289 281 291 291 295 291 298 295 297 294 294 294 295 297 294 293 297 295 294 297 294 294 296 298 296 297 294 289 292 289 291 294 292 291 294 294 296 296 290 290 289 290 290 289 287 285 282 282 280 284 284 283 287 286 287 290 285 292 295 299 298 300 299 296 296 297 297 296 295 295 295 294 294
309 310 310 310 312 314 313 311 312 311 311 311 308 302 295 285 284 294 294 295 295 296 297 296 293 293 293 294 297 296 295 300 296 295 295 294 292 293 295 295 292 294 293 292 288 290 286 289 292 292 293 298 295 296 297 297 292 291 294 292 289 288 284 280 283 281 283 287 284 287 285 284 286 292 295 298 298 297 296 296 296 296 296 295 294 294 293 292
308 308 309 310 310 311 314 313 312 313 313 310 303 296 285 285 290 290 291 296 296 295 297 295 295 294 294 292 295 294 296 294 295 294 293 293 292 293 294 295 294 295 294 288 293 288 289 290 296 296 294 295 294 298 299 294 292 292 293 293 288 287 291 284 287 286 286 286 285 283 285 291 292 298 298 298 296 294 295 295 295 294 294 294 292 291 290 290
306 306 308 306 308 311 313 313 313 314 313 306 297 289 286 290 288 295 292 298 296 294 295 295 295 292 293 294 294 293 297 294 294 292 293 293 294 293 295 294 295 295 292 289 294 287 290 287 292 293 292 294 294 294 295 297 287 290 289 286 290 295 292 287 287 287 285 284 281 290 288 291 296 297 299 295 293 292 292 292 292 291 292 291 289 289 289 289
303 305 301 304 305 311 313 314 313 314 310 303 294 286 293 294 298 297 300 295 296 296 294 288 290 290 290 289 292 291 293 294 292 292 290 293 291 294 292 294 296 295 297 296 291 296 287 289 294 293 292 294 289 291 294 294 295 290 286 291 293 295 293 288 281 285 283 280 282 288 284 287 288 285 294 293 291 291 290 289 289 289 289 288 288 288 288 288
302 301 301 301 306 309 313 313 313 312 306 299 290 291 299 293 299 298 296 294 295 298 293 291 291 295 289 289 289 291 293 291 292 290 289 293 289 298 294 295 296 296 296 297 292 292 293 285 293 294 295 293 292 293 293 294 294 292 291 295 289 285 284 288 284 276 278 278 280 285 287 287 289 290 295 294 291 290 288 288 287 286 287 287 287 287 287 288
301 300 295 302 306 308 311 313 312 306 300 293 289 288 295 296 297 298 298 299 298 297 292 293 290 294 293 289 291 291 293 289 292 290 289 292 288 296 294 297 294 292 293 296 292 293 292 285 288 294 292 292 292 293 286 290 293 293 293 291 293 289 286 285 286 285 285 279 280 280 285 283 292 293 295 292 289 289 288 286 285 285 285 286 286 286 286 286
297 295 293 306 311 308 312 312 306 303 296 288 290 291 299 294 298 299 297 299 297 295 293 293 295 291 293 293 294 290 293 292 292 292 291 294 291 298 295 297 295 295 292 294 294 295 290 295 282 292 290 293 287 291 289 292 289 288 288 287 289 287 290 289 287 285 283 281 280 280 279 284 292 293 291 288 287 288 287 285 285 285 285 285 285 284 284 285
299 295 294 308 310 311 312 306 297 294 293 295 296 295 296 294 296 296 297 298 299 299 296 295 294 291 293 292 292 295 292 292 292 291 292 293 293 287 295 293 296 295 294 294 293 293 288 290 284 289 289 289 290 296 294 293 293 291 290 288 290 286 284 281 280 290 285 283 279 280 278 286 289 291 288 286 287 287 287 286 285 284 284 284 284 284 284 284
294 286 291 303 311 311 304 293 293 297 295 292 291 295 293 300 296 297 297 296 298 298 298 296 295 294 293 293 294 292 291 290 291 291 292 290 294 293 293 290 294 295 294 292 293 294 292 290 288 285 288 289 293 296 294 296 294 293 292 289 293 290 288 284 278 282 287 285 285 283 280 281 288 289 287 285 284 284 285 285 284 284 284 283 284 284 284 284
292 290 300 302 307 308 299 292 294 293 292 296 301 298 299 296 294 295 295 295 295 297 296 295 295 294 295 294 294 293 294 290 292 290 291 292 293 293 289 290 293 293 296 291 294 289 292 286 285 285 289 292 294 297 294 293 294 291 293 291 291 287 286 284 284 285 282 283 281 282 279 282 287 287 285 285 284 285 284 284 284 283 283 284 283 283 284 284
293 292 294 302 304 305 297 286 287 289 292 296 297 296 300 298 296 295 295 296 296 295 294 293 293 296 293 295 293 291 296 286 292 292 290 293 291 290 289 291 291 288 293 290 290 293 286 285 286 280 281 284 288 292 290 291 290 286 288 290 290 289 289 289 287 286 280 282 283 280 275 283 290 287 286 285 285 284 284 284 284 283 284 284 284 284 285 285
291 292 293 295 301 301 291 295 291 290 291 291 292 291 293 295 298 297 297 295 298 297 295 293 295 296 292 293 292 291 291 291 287 292 292 291 291 291 290 292 293 291 292 292 293 293 288 286 285 278 275 274 274 276 279 282 285 287 287 285 290 289 288 285 281 283 278 283 283 279 279 287 292 294 293 289 288 286 285 284 284 285 284 284 285 285 285 286
286 281 290 291 297 295 294 294 292 293 291 290 289 291 293 291 296 297 299 296 298 297 297 297 293 291 291 290 288 290 290 291 288 287 289 289 290 290 289 290 290 292 291 291 290 293 286 288 287 284 281 279 281 284 288 288 286 283 285 286 286 288 288 287 284 280 277 281 280 282 283 283 285 288 289 290 288 286 284 284 283 284 284 285 285 286 286 285
289 284 288 283 292 291 289 293 291 293 289 294 287 292 289 291 293 293 298 292 296 296 295 295 292 290 289 290 289 289 291 290 291 289 288 289 291 290 288 289 289 289 290 290 290 290 286 283 285 285 284 285 286 286 288 288 284 284 284 284 286 285 285 283 280 278 284 280 275 283 284 282 284 287 288 289 285 284 284 282 283 284 284 285 285 285 285 285
283 286 288 288 288 285 286 286 291 289 290 291 289 292 288 289 290 288 294 295 294 294 291 291 291 293 292 290 289 285 287 288 288 286 289 287 287 288 287 288 286 286 288 288 290 288 284 281 283 284 282 285 286 285 287 285 284 284 284 283 283 284 284 280 281 283 283 278 276 282 283 281 284 286 288 284 283 281 282 282 282 283 284 284 285 284 285 285
287 287 285 289 285 285 286 287 286 288 288 289 287 289 287 289 287 290 290 289 291 290 293 285 287 289 288 290 288 285 287 283 283 285 284 284 282 284 284 286 285 285 285 284 286 287 283 280 283 284 281 282 284 284 285 283 282 282 282 283 283 283 282 283 282 283 283 281 283 283 283 283 286 286 285 282 282 282 282 284 284 283 283 284 284 284 284 285
284 285 283 287 285 284 284 285 285 285 284 287 285 286 287 288 287 289 289 289 285 288 293 288 287 285 284 286 287 284 285 286 285 283 285 283 283 286 283 285 284 285 284 282 284 285 284 278 285 280 279 279 282 283 283 282 281 278 280 281 282 282 282 282 282 282 282 281 282 282 281 281 283 281 283 283 282 283 282 281 282 282 283 283 283 284 284 285
289 291 290 284 283 283 283 284 283 284 283 284 283 286 286 286 286 288 285 285 286 286 288 286 285 283 282 285 285 285 286 284 284 284 285 285 282 286 282 282 284 278 281 281 284 282 284 279 282 280 275 275 279 279 280 280 278 277 276 278 279 279 278 280 279 282 281 279 281 281 278 279 281 281 280 283 281 281 280 281 281 282 282 282 281 282 283 284
289 289 290 287 280 285 280 283 282 282 279 283 285 284 285 284 282 284 283 285 283 284 284 285 284 285 283 284 284 285 286 285 286 285 285 285 286 284 285 284 284 282 280 280 282 280 280 279 277 277 274 273 278 279 276 275 274 272 273 277 279 279 280 281 282 283 282 282 278 276 277 281 280 282 278 280 281 280 281 281 281 281 282 282 281 282 283 284
Wind_Speed
10 11 11 11 12 12 11 11 11 12 12 12 12 11 11 11 11 10 10 10 10 10 10 11 10 11 10 10 9 8 8 3 2 2 4 7 2 6 6 5 13 13 10 8 9 9 5 4 6 1 3 3 2 2 2 0 1 3 4 4 6 7 6 4 7 7 2 5 6 4 5 6 10 3 2 1 7 9 12 13 9 8 11 12 2 3 4 4
10 10 10 11 11 11 11 11 11 11 12 12 12 12 12 12 11 11 11 11 11 10 11 11 11 11 10 9 9 8 5 2 4 3 14 5 6 7 5 10 13 12 10 8 10 7 7 6 4 3 5 3 1 0 1 2 2 5 2 4 9 3 3 4 6 7 5 9 7 5 3 4 10 4 2 6 9 7 11 15 13 13 15 16 11 6 4 5
10 10 10 10 11 11 11 11 10 11 11 11 12 12 12 12 12 12 11 11 10 11 10 11 11 11 11 10 9 3 4 3 4 7 3 6 9 7 7 11 14 13 9 6 5 7 4 5 8 7 2 2 1 2 2 1 3 3 4 8 9 8 4 5 4 8 9 11 13 11 3 4 3 2 1 7 13 9 13 14 14 13 14 12 13 10 9 7
9 9 9 10 10 10 10 10 10 11 11 12 12 12 12 12 12 12 12 11 11 11 11 10 10 11 10 10 9 3 3 5 6 1 2 3 6 7 9 12 12 8 4 4 5 4 4 8 6 4 3 5 2 2 4 4 4 3 5 8 7 1 7 8 12 11 8 2 10 8 3 7 7 6 5 6 8 13 15 16 17 19 17 13 6 7 7 8
9 9 9 9 10 10 10 10 11 12 12 12 13 13 12 12 13 13 12 12 12 11 11 11 11 11 10 9 8 1 3 8 2 2 3 4 5 8 10 10 10 5 2 8 9 6 6 7 7 2 2 4 2 2 6 4 2 2 9 9 11 2 7 7 8 3 3 1 6 8 8 10 3 5 10 11 12 12 12 12 10 14 14 13 13 8 5 7
8 8 9 9 9 10 10 10 11 12 12 13 13 13 13 13 13 13 13 13 13 12 12 11 11 11 10 8 3 2 2 5 1 0 5 6 7 8 11 9 7 7 10 8 6 7 7 4 7 4 3 4 6 7 3 4 5 8 10 12 12 9 11 1 1 2 3 5 5 8 6 6 8 12 12 14 17 17 17 18 20 18 16 12 6 4 6 8
7 7 8 9 9 10 10 10 11 11 12 12 13 14 14 14 14 13 14 14 13 13 12 11 10 11 11 5 2 2 5 8 3 2 6 6 7 10 9 8 8 9 9 8 8 8 5 5 7 3 2 3 6 7 3 5 3 7 11 1 7 5 12 10 5 5 4 5 10 5 7 13 12 16 3 12 15 19 21 20 21 20 17 5 11 12 14 13
6 6 7 9 9 10 10 11 11 11 12 13 13 14 14 14 14 14 14 14 14 13 12 12 10 9 9 2 2 2 4 9 3 2 5 7 8 10 10 5 6 6 10 10 11 7 7 8 8 4 6 8 2 6 3 4 6 9 11 9 9 2 11 10 7 4 7 10 11 5 11 20 14 14 14 22 12 18 20 20 21 19 16 13 13 16 15 15
5 7 7 8 9 10 10 11 12 12 13 14 14 14 15 14 14 14 14 14 14 13 12 9 9 7 3 4 2 6 8 5 1 0 7 8 7 8 10 8 5 11 5 2 3 6 8 7 4 9 5 6 4 8 5 5 9 12 16 8 7 8 10 9 7 8 9 7 6 5 16 18 14 6 20 27 19 17 18 20 20 16 14 15 15 15 14 14
7 7 7 7 7 10 11 11 12 12 13 14 14 15 15 15 15 15 16 15 14 13 11 8 6 6 2 2 2 8 2 4 2 3 4 7 7 7 2 2 10 8 7 4 3 7 11 6 9 5 1 4 4 6 4 9 3 1 3 6 10 12 11 6 9 11 7 10 7 10 15 17 3 2 15 9 4 6 11 14 14 10 13 14 11 11 12 13
6 6 8 7 7 9 11 11 12 13 13 14 14 15 15 15 16 16 16 15 14 12 10 7 1 2 2 3 7 12 3 1 2 4 5 6 9 9 7 4 7 9 5 3 7 10 2 4 4 5 0 4 5 4 6 3 3 2 4 8 13 13 12 10 10 16 5 10 9 12 15 15 8 3 18 18 2 3 5 12 14 13 13 13 12 11 10 9
6 6 8 8 9 10 11 12 13 14 15 15 16 16 17 17 17 17 15 13 11 9 8 6 3 2 2 3 9 9 3 3 4 3 5 5 4 3 3 2 5 5 9 7 7 3 2 5 8 8 4 6 5 2 4 1 3 2 3 8 12 13 14 16 13 13 9 8 5 7 7 11 9 12 21 18 14 5 8 13 15 15 14 13 11 9 8 10
5 7 8 9 9 10 11 13 14 15 16 16 17 17 17 18 18 15 11 9 6 3 0 4 5 2 2 8 7 4 2 4 6 6 5 4 6 4 3 2 1 2 3 4 3 5 3 6 7 10 2 5 0 4 4 2 2 2 5 4 12 12 12 11 5 2 3 3 7 8 9 4 13 18 18 14 5 2 7 13 14 13 12 11 9 7 9 10
6 6 7 9 9 10 12 13 15 16 17 18 18 18 18 18 14 9 8 7 5 2 6 8 2 2 3 8 2 1 2 3 6 5 4 1 4 3 3 4 3 2 2 0 3 1 5 1 1 1 2 6 4 4 4 1 3 7 1 1 9 9 9 2 2 5 4 5 11 6 10 9 9 14 14 4 1 4 11 13 15 14 14 14 10 8 10 14
5 6 6 9 10 9 10 14 15 17 18 19 19 19 19 14 7 6 5 4 4 5 7 8 1 3 4 6 6 1 3 1 5 2 3 5 5 3 2 2 4 5 4 5 2 2 3 5 4 4 4 2 1 5 7 3 2 3 5 7 4 7 7 8 3 7 12 2 6 7 10 10 9 12 11 2 3 1 8 13 16 17 16 17 15 16 15 16
6 5 5 8 9 9 8 10 14 17 19 20 17 18 12 5 3 4 6 5 5 7 4 2 3 2 2 7 2 6 2 4 2 2 1 3 5 3 5 5 3 4 1 5 2 3 2 4 4 1 2 3 6 6 4 5 6 4 8 11 11 7 9 9 9 4 5 4 6 11 13 11 9 7 9 1 3 5 12 19 21 23 22 19 15 13 13 15
5 5 5 7 9 8 9 10 11 13 17 17 16 12 6 1 3 5 5 4 4 2 2 1 3 1 5 1 5 3 1 2 1 1 2 2 1 8 9 6 3 5 7 6 2 3 3 4 2 2 1 6 1 2 4 6 9 9 6 10 5 10 10 10 9 11 5 8 7 11 11 13 16 16 17 18 18 18 17 21 23 21 18 18 14 13 14 15
6 7 7 7 8 9 9 11 12 14 17 18 14 8 3 2 2 1 4 4 1 0 0 0 2 2 9 3 7 1 2 1 2 2 2 2 2 7 4 4 3 7 8 6 1 4 1 3 1 5 3 6 4 6 6 9 8 9 5 7 8 8 10 14 9 1 4 7 9 8 15 17 18 18 18 19 19 18 19 20 20 20 20 17 15 14 15 15
8 9 8 8 9 9 10 11 13 15 16 19 7 1 4 4 1 1 1 0 2 1 2 4 4 5 2 1 4 1 2 2 2 2 4 6 2 3 5 4 8 11 6 5 3 4 2 2 2 4 9 10 10 12 12 14 13 11 7 10 10 12 12 9 13 12 9 14 14 14 17 16 16 16 16 16 15 16 21 21 20 17 16 16 16 14 12 9
8 10 8 8 9 9 10 10 13 16 18 12 3 1 2 1 1 2 1 3 3 7 9 7 5 6 10 12 3 2 1 1 3 3 2 2 6 7 5 4 3 1 6 6 5 6 1 8 8 9 12 12 9 14 17 14 3 3 4 7 13 14 15 15 18 16 6 9 12 14 17 17 15 15 18 19 19 19 22 21 16 17 18 18 15 13 8 7
7 10 8 7 8 8 9 11 12 15 15 6 4 1 2 0 3 3 5 9 10 6 7 13 14 13 12 3 1 1 1 2 2 2 2 1 3 9 4 5 7 5 4 2 4 3 2 9 10 13 13 12 8 5 7 11 9 11 12 12 14 9 16 12 15 12 4 4 8 8 15 16 16 18 20 21 19 22 19 15 18 20 19 18 13 7 9 7
8 9 8 7 7 7 8 9 11 13 10 3 4 4 2 1 2 1 1 7 4 10 9 13 6 8 4 2 2 1 1 5 3 5 3 3 4 6 5 6 6 8 5 4 2 3 7 10 11 14 14 1 1 1 3 8 11 10 10 10 10 10 14 14 14 10 2 2 11 9 16 14 18 21 24 20 18 15 15 15 17 17 20 9 10 9 8 7
8 8 7 7 7 7 7 8 8 8 4 3 3 2 2 1 0 1 2 3 8 3 6 6 5 9 10 1 4 5 8 11 8 6 7 6 4 4 7 7 7 2 4 8 9 6 8 8 15 16 9 4 5 3 3 5 7 9 9 7 11 8 8 8 5 2 3 0 12 14 18 15 20 19 17 14 9 13 12 16 21 20 12 9 9 8 7 5
6 6 6 6 5 6 7 7 5 1 3 2 3 2 1 0 2 2 3 4 5 7 2 2 5 3 5 4 1 9 11 5 4 7 4 7 8 3 5 9 5 4 10 13 14 12 12 2 0 4 5 10 12 8 6 9 13 9 11 9 11 14 12 10 9 5 10 12 4 12 13 10 3 6 2 2 2 6 12 17 18 7 3 6 3 5 5 3
5 5 6 6 5 5 5 5 0 1 1 1 1 0 1 1 1 2 3 4 3 6 3 1 1 4 1 2 1 5 1 1 2 3 1 3 6 4 3 2 3 10 10 9 10 11 13 4 4 4 3 7 8 7 11 11 12 9 8 13 17 15 15 14 13 9 7 7 4 10 13 3 4 2 1 2 3 7 14 17 5 3 2 4 5 4 1 1
6 6 6 5 5 5 2 2 1 3 2 1 1 3 2 1 1 1 3 2 6 2 1 2 3 2 2 2 2 2 3 3 2 1 2 3 4 2 4 4 2 3 5 4 7 5 7 3 3 7 5 4 7 9 11 10 11 8 6 9 13 14 13 11 11 6 7 5 3 5 4 13 5 11 8 9 8 14 17 11 6 5 5 6 5 2 3 7
1 2 4 5 5 3 1 2 2 3 1 1 2 2 2 2 1 2 3 3 4 3 1 3 1 2 1 1 1 3 3 3 1 3 1 2 2 1 5 4 2 1 1 2 1 6 5 1 4 2 6 7 6 9 8 11 8 9 3 0 3 5 6 5 3 5 10 4 6 6 8 9 14 4 5 7 10 14 14 6 4 7 5 9 7 2 8 10
6 5 3 3 4 3 2 1 1 1 1 2 3 2 2 3 3 1 2 5 2 2 1 2 2 1 1 1 1 1 2 3 1 2 1 2 2 3 3 5 6 4 5 3 9 2 5 4 6 5 6 5 10 9 5 11 8 1 3 2 2 2 2 1 3 6 4 7 7 5 3 5 9 2 2 4 6 10 11 6 7 12 10 9 6 9 14 12
7 7 6 1 2 3 3 1 1 2 2 4 4 4 3 4 2 3 2 5 1 2 1 1 2 1 2 1 2 2 1 1 2 2 1 1 3 1 4 4 2 1 2 7 10 1 2 1 6 8 6 9 6 2 5 8 9 2 4 5 4 4 4 2 3 4 5 4 11 7 9 6 16 4 6 2 4 7 3 6 9 12 11 6 9 13 13 12
8 8 8 3 6 2 0 1 2 1 3 4 4 4 4 2 2 3 2 6 4 1 2 1 3 1 1 3 2 2 3 2 1 1 2 2 2 2 3 0 2 1 6 3 7 8 3 1 2 3 9 5 5 3 1 4 2 4 3 1 1 1 1 1 0 3 3 8 10 12 13 7 11 2 5 7 1 2 2 6 6 9 8 11 12 13 12 11
7 9 9 6 1 1 1 2 0 2 3 3 4 3 1 1 2 3 9 2 4 2 1 1 1 1 3 3 2 2 1 1 3 2 3 2 3 1 1 3 2 2 1 3 6 8 4 3 2 4 2 3 3 5 3 1 2 1 1 2 4 4 2 3 0 2 3 10 3 8 12 12 8 3 2 2 1 2 4 5 6 6 13 11 11 11 12 12
7 7 9 4 2 1 2 2 0 3 3 4 2 0 1 3 3 9 5 4 4 1 1 1 2 0 3 3 2 1 1 2 1 4 5 3 3 5 6 6 3 3 4 3 3 5 3 9 4 1 2 5 5 4 2 2 2 4 3 2 3 4 2 4 4 3 6 9 2 4 5 3 16 13 5 6 8 7 2 3 8 8 8 12 11 12 11 11
6 5 6 2 2 0 1 1 3 3 3 0 0 1 1 3 9 5 1 3 3 1 2 3 1 1 2 0 2 1 1 3 4 3 2 1 2 6 3 6 2 4 10 2 4 6 5 5 4 5 1 7 9 8 3 3 8 7 7 5 3 5 4 7 4 2 5 1 4 1 4 10 14 12 10 16 12 7 11 8 6 8 11 13 10 10 12 13
5 4 2 2 2 2 1 2 2 4 2 1 1 2 2 7 6 5 5 5 3 3 3 2 1 2 1 7 3 4 5 4 4 3 5 2 2 4 5 7 5 4 4 5 5 3 11 10 5 9 4 9 12 13 9 4 9 11 7 10 6 6 3 7 3 10 8 7 2 3 1 4 2 0 3 6 6 9 8 7 10 14 14 13 11 12 14 14
3 1 0 2 1 3 3 3 4 4 1 1 1 3 7 11 1 5 5 4 3 2 2 3 1 0 4 2 2 4 5 6 3 2 3 4 5 3 5 5 6 6 2 5 4 1 10 12 2 2 3 7 11 6 5 5 0 3 1 3 2 6 2 10 4 8 8 9 3 3 6 1 8 6 4 4 10 13 11 13 14 15 13 11 12 13 13 13
1 0 1 2 2 3 7 5 4 2 3 3 4 8 14 7 3 5 3 2 2 2 1 1 3 4 7 6 1 2 2 7 1 2 3 5 2 3 2 2 5 14 8 7 2 4 4 6 4 1 2 7 1 2 4 0 7 4 5 6 6 4 3 6 4 4 0 2 12 4 7 9 7 12 7 12 17 11 13 14 14 13 12 13 13 12 12 11
1 1 2 3 4 4 6 5 4 3 3 4 6 13 8 5 11 2 1 5 3 6 3 5 4 6 3 3 3 3 3 1 3 2 6 3 5 9 2 5 3 6 10 2 4 4 7 11 3 6 6 3 3 3 3 4 0 7 3 4 3 1 3 2 6 2 7 13 10 6 14 13 9 10 9 13 13 12 12 12 12 12 11 12 10 10 10 10
0 1 4 4 5 5 6 7 7 4 4 6 13 17 4 8 3 12 3 2 1 1 6 7 5 2 5 7 7 5 4 5 2 4 4 6 5 7 4 2 3 3 5 2 4 2 3 8 6 2 2 2 1 2 5 3 5 3 1 5 3 4 5 5 2 4 9 13 12 12 16 16 14 14 7 3 11 10 10 9 11 11 11 10 10 11 10 10
1 2 4 3 4 10 7 9 8 8 8 11 12 14 9 11 4 4 5 3 1 3 6 8 10 3 7 9 5 2 6 6 4 3 3 5 7 3 2 2 1 3 1 5 3 2 2 8 8 2 2 3 1 3 6 5 3 2 1 2 2 1 7 7 5 2 6 15 11 9 10 11 9 13 13 5 11 10 8 8 10 9 8 7 7 7 7 8
2 2 5 2 2 7 8 9 9 9 12 17 13 10 3 0 8 5 3 7 4 8 7 8 7 11 5 6 3 6 1 4 3 4 5 1 9 5 3 1 2 1 1 2 3 2 2 1 12 2 2 1 5 7 8 8 6 5 6 7 3 3 2 3 2 4 6 12 13 14 13 10 4 6 11 10 10 8 8 8 6 6 6 6 6 5 4 4
1 1 2 3 3 9 11 9 10 14 15 10 11 10 7 6 2 1 1 2 3 3 3 3 5 9 5 5 9 3 3 4 5 9 7 7 8 9 4 3 5 2 2 3 2 3 2 5 10 6 9 10 10 2 2 1 3 4 5 8 9 7 6 8 12 8 9 11 13 13 14 3 6 3 8 9 6 8 7 9 6 5 5 4 3 3 1 2
3 3 2 6 5 14 13 13 9 6 7 14 11 7 6 3 4 5 3 3 3 4 3 3 2 4 2 7 4 0 2 2 3 4 3 11 6 10 2 3 3 2 2 3 0 4 1 2 3 10 9 11 12 4 2 3 2 1 3 6 3 4 4 8 16 9 4 2 3 2 7 2 2 2 6 6 5 5 6 6 7 4 4 3 2 1 1 2
4 2 3 4 2 13 10 7 7 8 10 7 3 4 2 3 3 1 3 2 4 2 1 3 6 7 7 8 4 6 6 6 6 9 5 5 6 3 4 5 2 3 3 1 3 0 3 1 5 8 6 9 12 9 3 2 3 3 4 3 3 4 1 4 7 4 7 5 9 7 7 3 4 3 4 6 7 8 5 6 6 6 3 2 2 1 2 3
3 2 1 0 4 5 9 11 10 13 9 8 8 11 3 3 2 5 5 5 5 2 5 4 2 7 6 1 3 8 5 7 5 10 8 2 2 2 5 7 4 1 1 2 0 5 1 2 3 4 5 3 6 3 3 3 3 0 1 1 3 3 2 3 4 2 7 6 10 9 10 1 4 7 4 6 7 6 6 5 4 5 4 3 3 4 4 5
1 2 2 3 2 3 10 3 4 10 12 13 12 14 13 8 5 9 7 6 4 6 2 3 5 1 2 0 0 1 2 8 4 1 3 2 1 2 2 4 4 3 1 1 0 1 2 3 2 7 6 8 5 5 5 3 1 1 2 2 5 3 8 8 8 5 8 1 3 4 6 3 3 7 6 7 5 6 5 4 4 4 3 3 3 3 4 5
3 3 3 1 1 0 3 0 1 4 9 10 11 12 12 12 5 2 7 8 10 3 6 4 1 1 2 2 4 6 8 4 7 2 1 3 2 1 0 2 4 1 5 5 2 1 1 2 5 8 10 10 9 6 3 2 4 8 4 6 10 9 7 7 9 9 9 8 12 10 14 16 17 18 19 3 2 4 3 4 3 2 2 1 1 2 3 3
2 3 4 5 1 2 3 1 3 2 4 4 7 3 12 14 10 5 5 5 3 9 6 8 4 5 5 9 10 12 12 10 7 6 10 10 1 2 2 1 2 6 2 1 2 2 1 4 8 11 12 12 13 14 14 8 11 10 12 13 12 13 7 8 10 13 10 15 17 8 16 15 15 17 20 11 5 4 4 4 3 2 2 3 3 5 5 5
2 2 2 3 2 5 7 8 5 5 2 1 5 3 3 5 9 8 1 2 2 1 8 1 4 10 10 9 5 5 5 6 6 6 3 0 1 1 2 2 3 6 3 1 2 2 1 9 5 9 7 12 15 15 10 5 5 10 10 11 17 16 14 14 14 13 14 15 19 17 19 19 18 19 13 6 5 4 4 5 4 5 4 4 5 6 7 6
0 2 1 4 3 2 1 3 4 4 7 5 2 4 7 7 9 6 3 1 2 3 6 8 4 6 4 2 3 3 2 7 4 2 1 1 1 2 1 1 2 4 6 3 3 0 0 5 8 8 8 6 10 10 8 10 10 11 12 15 15 18 20 19 18 17 18 20 20 22 22 23 20 11 5 5 4 4 4 4 4 5 5 5 6 8 8 7
1 1 1 3 4 2 1 2 2 1 5 5 5 8 5 8 13 5 0 1 3 2 1 4 2 3 3 2 2 3 1 0 0 3 1 4 3 1 1 3 0 1 3 2 2 3 2 6 2 2 5 8 10 12 11 11 8 13 14 16 18 20 21 18 19 19 19 20 21 21 21 21 3 6 4 3 1 1 4 5 6 6 6 6 7 8 8 8
1 3 1 2 2 2 3 1 3 5 3 4 5 6 1 5 7 0 1 3 2 3 2 3 6 4 1 3 1 2 2 3 2 2 1 1 7 2 1 0 6 1 4 1 1 2 3 4 4 5 12 14 10 11 9 7 6 10 14 19 22 20 18 16 16 12 15 16 18 17 14 11 3 2 2 2 1 3 5 7 6 6 6 7 8 9 9 9
2 2 1 1 0 2 5 3 3 3 7 4 4 2 3 1 2 1 3 3 6 4 1 4 2 2 2 4 7 4 4 3 2 3 1 2 2 3 3 4 5 5 1 3 2 4 3 7 7 7 12 11 10 8 3 2 7 13 17 21 19 19 20 20 18 18 20 16 12 12 10 2 4 4 3 1 3 5 6 7 6 7 7 6 8 9 10 11
Wind_Direction
34 32 30 29 26 23 20 18 15 14 12 10 8 6 5 5 1 358 358 351 348 348 341 336 338 333 335 337 341 343 329 306 191 219 206 245 70 128 156 102 144 141 159 131 130 146 138 147 161 67 171 218 20 217 28 125 344 206 223 241 248 260 244 197 235 206 37 282 289 200 204 235 270 193 167 211 225 239 268 265 241 230 244 241 239 83 82 133
31 29 28 24 22 20 17 14 13 10 7 6 3 1 359 357 356 352 350 349 346 343 340 333 331 332 330 334 338 341 319 262 260 229 243 108 134 149 138 143 141 152 163 153 165 176 153 169 153 182 173 195 2 43 291 155 264 224 208 229 270 235 269 170 228 243 237 273 289 283 149 246 273 350 311 283 274 237 269 264 254 236 237 240 233 181 183 159
29 28 25 21 18 15 13 10 8 6 3 358 359 357 353 351 350 347 344 343 342 338 336 333 330 327 329 331 334 357 296 264 246 255 299 94 135 148 142 141 153 168 179 173 181 180 202 185 157 169 170 221 52 148 257 150 223 215 246 255 250 237 241 207 219 236 226 277 284 283 267 222 264 291 73 256 280 275 262 274 277 255 254 238 235 201 203 194
27 24 21 19 15 12 7 5 4 360 357 356 352 352 349 345 344 344 339 339 336 334 333 329 328 324 324 328 333 321 269 277 272 57 97 185 141 152 156 152 155 163 105 71 138 116 101 114 136 212 153 233 107 237 221 173 231 128 215 240 267 257 260 227 222 240 251 282 274 279 289 280 260 241 216 255 279 265 259 252 256 272 283 295 266 199 180 210
21 21 17 14 12 10 4 1 358 356 352 351 349 346 345 342 340 338 339 334 334 330 328 327 325 321 325 324 334 242 305 286 18 278 108 170 170 164 157 149 151 165 143 128 110 106 144 145 147 92 216 223 156 194 238 162 278 143 233 250 262 124 254 255 217 215 239 348 269 273 286 286 55 238 221 229 246 267 272 284 266 270 286 283 283 277 170 212
16 16 15 11 8 8 0 355 354 353 348 345 344 342 339 338 338 334 333 332 328 329 325 323 324 322 321 328 291 211 299 309 116 232 148 159 166 161 156 135 142 139 132 139 141 147 139 145 172 181 202 229 201 225 127 197 156 249 235 237 249 250 265 313 236 130 194 232 233 266 289 323 263 277 254 218 229 255 263 274 279 281 282 282 286 264 239 222
9 16 14 9 5 1 356 351 349 347 343 341 340 338 335 334 332 333 327 328 325 323 323 320 320 325 324 300 211 254 235 276 233 177 145 152 155 148 131 123 140 146 155 125 147 155 186 147 210 202 194 240 241 236 186 186 197 245 270 136 263 239 249 262 263 115 217 249 259 275 313 280 276 283 280 222 231 248 266 270 273 277 276 273 274 260 254 243
12 13 15 4 360 356 350 347 345 340 340 338 335 335 332 329 328 326 325 319 321 317 319 316 318 321 336 251 240 202 179 243 247 40 144 130 131 130 122 114 152 154 177 182 167 175 166 178 200 118 234 247 120 206 145 206 186 234 252 258 269 274 260 271 278 251 255 250 257 286 278 265 267 274 308 271 233 247 258 266 269 269 271 265 258 262 258 256
15 7 6 355 351 350 346 344 340 338 335 334 333 330 329 324 323 321 318 316 312 312 306 315 309 326 308 279 243 277 235 230 48 95 145 126 124 124 147 148 196 173 179 118 218 163 178 208 195 187 266 219 158 241 164 230 246 206 245 278 278 267 272 271 276 244 237 259 188 225 253 265 270 321 273 267 266 245 252 263 267 270 266 263 258 257 254 254
3 356 352 339 339 345 343 339 335 331 330 329 328 327 322 323 319 317 314 310 306 303 299 293 309 310 337 190 192 262 298 65 89 122 106 118 123 140 189 88 170 171 159 174 147 160 206 192 203 190 316 265 158 228 107 199 262 65 313 292 285 284 290 277 259 276 229 252 178 218 258 269 254 162 275 280 249 231 238 256 267 272 268 265 254 255 253 252
349 350 344 335 349 338 337 333 328 326 326 325 324 322 321 319 318 314 310 306 302 295 290 276 260 222 243 199 243 262 95 154 91 109 124 131 136 160 182 163 174 175 176 135 201 201 179 131 111 110 205 243 147 208 200 224 3 346 341 296 276 275 268 252 245 256 222 270 208 222 252 267 255 171 247 268 212 142 258 271 276 266 261 266 259 254 260 253
336 338 338 339 339 338 332 329 326 325 324 323 322 321 320 319 319 315 311 307 300 292 277 257 141 203 244 237 243 246 17 46 123 111 117 145 118 25 25 189 195 185 177 181 216 210 192 151 158 174 263 108 239 57 221 263 270 298 305 292 288 287 286 271 245 265 174 236 146 188 227 258 237 227 246 245 265 280 269 268 270 272 270 266 266 261 259 254
320 326 333 337 335 333 332 328 327 325 323 322 321 318 320 321 320 319 316 315 302 286 321 152 125 252 228 265 253 30 354 99 109 105 87 72 101 72 41 10 356 345 305 266 211 188 186 159 180 213 124 213 196 277 108 205 128 247 209 275 293 286 277 288 200 69 171 212 145 147 278 203 230 239 249 259 247 284 267 267 265 266 269 269 264 262 261 261
290 307 328 332 333 332 331 330 328 325 323 320 319 319 320 322 322 325 326 319 318 222 198 137 174 186 207 258 90 340 107 120 117 127 113 213 143 46 76 58 63 41 349 114 55 51 136 340 210 79 46 230 244 108 186 67 177 279 61 184 267 285 266 254 159 117 250 142 172 201 263 271 263 272 281 290 102 267 276 278 277 273 272 271 267 253 257 261
319 312 323 330 329 324 320 332 331 328 324 321 319 320 321 322 334 342 360 4 103 110 132 107 241 191 198 268 92 22 174 38 178 129 156 168 146 123 104 114 66 41 53 53 84 78 121 133 118 203 220 70 336 276 267 298 293 265 279 250 201 229 261 278 261 191 258 137 217 186 259 262 262 274 296 5 60 200 272 278 280 278 274 272 272 272 271 267
297 298 321 314 316 317 315 319 328 327 323 316 317 319 317 323 16 30 46 51 115 123 145 179 139 287 315 272 137 122 198 215 164 28 139 315 202 199 116 112 113 79 81 52 78 114 80 168 197 304 332 156 221 237 269 299 258 208 232 268 268 256 277 303 265 247 236 115 205 206 270 297 267 261 274 289 230 249 280 283 280 280 279 274 267 266 263 268
285 306 301 292 298 308 306 310 312 317 314 313 321 315 323 186 75 54 51 51 67 113 262 96 136 220 261 106 120 242 186 93 75 150 97 39 334 134 129 115 122 96 88 102 96 143 56 184 19 221 207 257 285 174 271 250 262 247 210 262 248 269 294 276 307 279 136 204 233 212 249 255 272 282 285 288 287 286 282 276 276 275 274 274 275 265 267 270
289 283 276 279 291 297 301 306 313 316 318 319 325 320 313 185 184 180 105 69 71 107 214 209 243 293 240 104 251 178 55 178 133 114 37 358 203 142 125 128 109 125 130 109 60 192 318 183 309 229 196 213 190 215 213 248 242 279 260 263 268 229 225 268 291 259 295 184 257 255 247 262 269 274 273 272 277 278 276 272 272 275 278 283 278 272 273 274
275 277 280 285 294 298 304 310 311 318 324 320 325 40 67 88 89 229 360 66 231 209 191 157 197 205 293 178 7 321 131 67 117 213 134 131 94 86 81 74 138 145 158 188 136 174 152 128 197 213 230 219 210 208 220 239 260 281 293 284 285 284 275 263 257 269 274 290 292 278 277 283 285 284 281 278 268 266 265 272 273 278 286 284 278 274 270 285
278 280 285 291 293 301 308 310 310 321 330 326 11 332 204 235 222 177 210 242 217 249 281 272 246 297 319 279 247 56 77 146 207 36 111 304 149 138 80 142 82 1 153 205 142 198 135 196 191 201 223 229 221 211 229 253 6 325 266 257 267 272 274 266 269 274 288 302 264 266 275 286 288 285 283 280 273 267 262 265 287 288 282 276 269 270 312 347
273 274 287 285 290 298 306 312 313 323 328 309 278 233 39 267 318 319 327 268 260 274 242 247 226 229 242 82 77 277 305 160 38 116 109 117 297 160 150 153 170 190 193 28 128 81 219 221 218 224 235 249 256 251 252 266 273 265 269 270 271 256 273 261 278 288 302 266 273 261 274 278 282 280 273 266 266 263 274 293 277 272 273 270 279 10 46 25
260 277 288 287 286 291 308 308 322 329 319 269 3 71 122 53 331 312 302 295 276 223 225 244 45 261 303 35 56 239 41 311 177 100 120 225 138 233 143 204 167 222 110 135 121 174 209 225 226 228 239 86 75 212 223 243 255 250 250 265 274 265 267 273 258 279 336 272 283 288 291 288 281 270 267 267 268 272 270 256 262 264 260 275 44 19 18 9
258 271 284 288 285 298 300 315 331 346 331 3 46 66 64 82 195 31 346 261 265 257 216 248 251 250 270 273 221 111 248 227 250 158 174 184 121 251 146 183 201 158 152 189 215 206 243 226 230 232 228 214 230 186 210 249 240 248 249 241 257 277 284 298 181 114 161 272 297 309 296 287 258 258 264 267 260 262 257 250 243 240 268 340 360 6 7 19
245 260 271 272 277 284 296 321 317 318 35 8 73 52 55 8 137 153 201 264 319 286 190 215 251 266 265 287 115 200 205 241 182 239 126 185 184 128 185 202 185 173 215 201 218 233 241 48 54 244 207 215 235 217 222 245 257 227 231 256 272 264 255 248 293 335 310 282 268 307 276 274 269 172 143 167 299 246 255 248 246 268 325 331 22 64 61 25
231 244 252 257 255 271 286 316 18 30 141 243 86 164 163 180 267 191 274 268 193 254 102 263 126 225 174 88 220 189 146 73 256 30 295 267 134 157 215 45 209 230 227 208 231 247 257 241 118 120 174 209 220 233 223 231 257 259 211 226 244 262 280 281 290 335 302 284 66 348 329 300 161 141 159 319 247 260 253 252 247 86 38 62 53 63 99 178
222 231 236 241 255 265 294 313 195 148 227 130 61 148 147 140 181 237 266 319 288 155 157 159 201 95 317 115 15 329 161 189 18 18 356 339 339 293 110 202 193 271 190 170 232 254 268 65 177 215 164 175 206 232 236 195 252 266 266 209 248 258 269 279 290 331 287 291 66 19 317 297 181 246 252 261 256 262 258 270 327 353 32 41 55 50 50 44
5 263 241 238 235 272 284 247 114 149 295 131 149 146 142 149 198 190 279 228 265 121 202 18 223 102 217 40 49 154 202 98 99 92 147 7 228 356 252 197 120 112 8 128 13 231 188 164 108 146 182 199 220 243 228 188 234 256 66 346 222 251 249 274 288 240 271 322 261 194 212 283 299 201 205 232 236 253 269 308 343 360 55 92 93 53 62 54
24 16 329 249 221 212 256 105 119 228 251 125 108 110 144 131 135 209 236 314 291 91 58 166 35 292 290 54 326 299 14 325 214 94 310 334 280 132 253 246 233 200 169 176 253 54 194 150 173 158 189 193 223 231 88 185 203 319 25 47 66 303 293 208 242 279 289 330 304 161 167 272 265 114 293 200 242 251 263 306 50 56 48 50 64 65 62 54
14 4 339 268 212 149 53 105 179 221 127 139 133 138 126 147 197 306 349 268 103 76 24 52 342 180 47 205 100 73 210 134 313 67 285 200 29 287 220 263 228 288 193 227 259 237 279 259 206 191 172 224 204 57 170 165 226 123 127 92 93 105 78 183 269 290 289 305 275 152 183 270 283 255 161 65 270 271 64 39 69 85 82 43 46 57 57 55
15 10 7 101 111 123 107 52 260 41 118 125 137 132 117 187 213 216 196 240 37 283 117 114 187 346 345 156 197 50 224 86 77 34 47 173 97 148 92 130 209 180 228 226 259 271 49 127 4 210 220 251 92 53 327 225 52 112 165 142 150 160 186 146 85 288 294 253 265 162 188 214 287 310 154 169 187 356 27 134 88 105 86 67 60 54 50 48
21 5 6 335 118 23 153 242 123 119 119 114 131 153 224 210 240 225 237 215 354 201 52 189 195 67 164 207 195 96 202 342 135 188 141 187 147 140 285 204 153 216 239 252 253 244 201 146 224 231 19 83 113 94 56 49 109 217 238 287 299 235 148 207 187 164 248 266 303 150 183 199 235 212 251 39 16 235 290 311 311 35 70 66 60 58 52 49
27 5 359 360 337 314 149 311 55 150 137 134 143 248 199 260 158 218 222 112 262 137 163 172 37 124 83 28 321 118 170 162 194 193 201 178 189 194 192 238 158 282 247 191 256 93 229 214 190 90 252 196 173 224 129 109 159 207 198 251 264 282 334 253 152 227 205 253 78 43 105 243 237 244 326 313 311 301 142 307 343 23 79 72 60 60 55 52
17 6 344 9 315 193 295 75 120 122 118 147 38 352 231 201 254 187 166 176 257 90 185 55 74 213 143 83 236 103 11 272 137 218 116 100 241 237 220 237 124 222 282 70 290 296 268 95 142 201 303 213 184 201 154 226 185 182 202 193 201 266 238 261 280 288 279 279 92 130 181 245 271 287 246 256 279 17 49 43 21 27 59 73 64 52 50 46
8 353 5 339 339 312 17 109 131 154 140 36 175 63 118 234 231 32 206 209 216 38 53 105 136 86 189 254 266 170 268 200 170 204 200 185 194 258 217 212 161 230 219 281 275 300 295 279 189 153 225 152 192 210 216 294 160 194 197 179 202 212 233 276 239 261 269 295 62 245 158 231 322 92 23 68 47 64 56 55 60 65 68 70 60 52 46 40
347 28 9 304 269 246 177 164 168 183 99 14 86 200 239 243 170 205 204 226 285 314 283 88 209 51 248 194 243 241 225 290 113 122 203 189 223 216 224 214 186 200 105 266 213 152 227 255 65 187 354 155 187 222 57 98 96 143 61 1 293 233 184 243 250 262 284 289 240 174 225 360 243 27 263 110 83 78 65 60 60 60 60 60 51 42 39 37
18 12 113 262 210 218 179 175 171 203 158 149 198 226 229 208 228 149 227 179 42 208 302 283 141 252 254 239 166 212 121 222 101 171 227 209 300 257 147 234 178 180 174 209 170 263 189 249 87 271 88 209 202 23 212 157 246 131 148 203 217 19 214 273 282 247 294 260 252 249 256 252 277 271 262 106 92 79 66 56 52 47 47 50 47 39 36 35
102 352 274 198 217 188 166 155 152 138 143 192 213 244 235 255 230 226 213 163 212 125 108 253 227 204 239 249 155 178 169 123 243 188 243 118 267 201 217 251 163 196 215 231 263 184 279 282 145 157 232 171 47 325 0 1 92 111 211 225 61 144 38 223 271 240 234 251 256 215 259 274 283 294 105 103 92 71 63 59 55 51 43 46 42 42 36 30
160 210 246 234 178 159 171 166 147 156 179 198 227 238 92 241 161 214 114 106 318 56 243 229 268 172 254 253 257 145 177 201 148 139 258 165 268 117 172 237 141 203 222 73 238 315 17 291 266 110 214 101 114 230 261 146 322 269 269 345 246 233 242 190 242 238 248 250 264 238 246 253 250 260 244 184 93 87 71 59 59 47 43 42 37 34 32 28
50 32 292 241 187 178 165 158 168 167 202 212 230 248 224 233 88 198 202 165 117 138 223 228 242 207 247 246 247 63 164 210 146 217 242 198 221 153 173 277 52 169 332 170 214 274 123 266 282 83 86 112 151 189 245 169 160 143 248 258 76 345 249 244 221 271 261 267 266 252 227 251 228 257 268 54 66 82 85 63 60 59 51 49 45 38 32 30
156 135 252 89 190 161 152 158 174 194 202 216 222 225 98 142 231 212 161 180 220 196 230 238 197 247 211 242 136 242 147 221 219 239 211 339 267 259 282 147 266 144 73 237 252 51 274 157 271 243 145 48 246 181 238 253 245 188 218 233 191 229 29 297 335 239 235 261 255 270 262 253 276 30 76 78 76 74 86 86 75 69 68 62 56 50 40 38
294 174 249 62 144 145 143 156 181 202 209 231 243 242 232 248 95 290 344 310 230 0 231 192 198 220 239 259 243 184 232 220 218 243 230 255 238 269 55 30 353 7 92 53 156 200 241 206 247 267 264 254 271 65 244 132 291 271 238 238 229 232 237 238 251 188 230 238 258 255 260 251 71 7 86 96 87 90 85 102 96 94 92 92 68 56 70 42
169 172 200 6 166 157 151 167 209 209 226 216 220 200 242 218 260 215 120 28 202 241 46 212 244 250 250 249 254 181 178 230 197 231 225 250 215 240 91 311 301 349 296 264 238 6 352 356 291 261 251 265 287 342 129 113 130 190 246 264 262 291 295 260 261 257 270 250 6 238 288 202 1 62 98 106 101 94 93 96 103 91 77 68 59 34 314 252
200 219 44 8 285 175 158 194 199 201 219 250 21 272 179 312 188 313 144 229 209 216 214 190 214 226 241 242 219 244 208 252 210 248 242 224 249 300 325 324 21 19 11 342 41 265 83 236 252 255 261 280 279 265 91 334 237 248 280 4 332 273 278 276 277 314 289 287 280 272 253 179 197 248 146 135 137 138 132 131 127 124 113 99 79 14 339 343
192 272 340 287 3 220 187 189 203 209 224 241 235 243 233 224 214 226 180 222 173 192 212 203 338 224 261 272 171 242 183 262 232 253 248 275 252 84 350 15 357 74 318 236 165 260 272 253 271 293 285 255 248 212 122 71 90 266 164 141 163 228 200 236 239 234 259 217 245 258 253 239 155 177 158 145 146 132 120 121 122 119 121 96 48 24 13 3
104 304 254 306 291 232 208 242 226 207 216 223 226 237 241 246 234 245 232 229 211 207 125 250 237 57 164 123 162 25 280 246 278 135 181 280 205 168 3 20 325 122 307 7 103 184 255 253 307 284 284 282 271 260 274 287 334 321 241 215 191 233 280 298 273 270 267 155 303 271 296 272 228 216 227 159 155 120 110 95 98 88 79 62 42 20 18 356
207 178 183 71 190 290 297 197 358 237 221 223 238 242 249 248 238 132 191 248 226 225 239 250 52 62 210 191 224 237 241 169 205 240 164 221 209 36 355 355 351 118 132 110 70 168 213 223 213 242 261 267 276 295 276 253 276 275 298 311 289 286 275 253 272 261 251 280 269 257 272 288 290 289 286 254 6 39 61 55 50 42 38 52 340 348 343 339
291 180 177 178 101 262 227 49 177 224 213 213 220 202 235 234 246 292 187 244 225 220 229 233 204 212 221 222 232 245 243 236 211 226 242 251 211 93 27 105 24 29 323 329 1 103 220 246 230 247 254 267 273 276 283 281 275 278 279 278 281 276 268 260 253 260 291 291 272 244 268 274 276 288 291 300 75 48 41 37 20 3 331 325 309 309 301 304
196 236 90 307 231 195 189 241 197 213 231 222 232 337 286 237 233 241 61 207 89 209 197 303 181 231 239 217 157 207 188 222 213 238 173 203 85 307 97 69 69 343 355 45 315 184 253 271 273 276 271 270 272 277 285 275 259 270 267 272 275 279 277 264 260 263 261 258 272 285 281 276 273 272 286 54 41 35 18 6 351 332 290 267 279 279 285 283
58 333 8 321 175 324 10 49 80 183 219 206 247 244 242 225 230 235 219 295 193 222 209 225 186 173 145 143 182 236 264 272 238 65 176 31 111 57 359 162 113 38 43 18 358 340 245 262 259 261 269 266 270 273 271 275 279 278 268 265 267 270 270 272 275 268 263 265 267 273 271 270 273 293 77 68 52 24 353 335 317 314 309 288 276 277 278 285
228 189 187 63 76 67 32 49 76 105 210 205 223 221 209 222 232 197 176 244 242 248 84 179 164 90 94 106 145 195 232 213 30 308 64 92 308 197 238 280 338 59 53 336 315 278 234 261 229 142 276 260 267 273 278 280 285 277 277 273 266 263 265 268 270 269 272 267 263 261 263 265 281 81 92 83 22 335 313 320 329 322 315 305 292 287 285 286
325 36 21 129 128 170 102 232 213 215 223 223 234 242 213 214 246 327 134 8 247 256 13 255 127 120 164 152 211 245 136 162 158 218 131 168 266 37 74 281 97 257 313 245 200 292 292 268 290 294 285 275 264 269 276 284 287 277 276 270 264 262 266 256 255 254 257 263 267 273 266 265 107 115 100 198 248 326 317 315 314 313 308 298 291 285 284 283
74 326 43 10 133 204 148 166 151 165 227 223 214 234 243 347 44 87 224 120 51 49 34 114 166 129 224 230 242 236 159 147 158 142 189 266 297 285 262 251 273 271 256 209 243 259 228 264 271 272 274 260 265 287 322 335 296 277 252 251 260 260 252 256 256 259 258 269 273 260 278 46 135 144 62 336 223 302 296 300 301 290 283 272 278 279 275 275